Погода в Анапе

Погода в Анапе : погода сейчас, прогноз погоды и архив. Всё, что Вы хотите узнать о погоде в Анапе!

Поиск расширенной информации на нашем сайте:

Другие новости

Новости СМИ2

Главная страница сайта

Новости сайта

03.07.2017

Напоминаем, что на нашем специализированном сайте Метеоцентр.Азия вы можете получить высокодетализированные автоматические прогнозы погоды по пунктам России, СНГ и мира в авиационном формате (включающие направление и скорость ветра, видимость, явления погоды, количество и форму облачности, нижнюю и верхнюю границу облачности).


Погода в Анапе - сегодня

Время (UTC), дата Ветер
(°,м/с) 
Видим.   Явления Облачность Т
(°С)
Тd
(°С)
f(%) Тe
(°С)
Pmin
(гПа)
dP
(гПа)
Po
(мм)
O2
(г/м3)
Тmin Tmax R s Состояние
почвы
03 15.08.17 210 (ЮЗ) 10 км    8/8 600 м 
[Sc]
+25.2 +23.3 89 +52  1010.2  -0.2  755  272  +25        сухая 
06 15.08.17 240 (ЮЗ) 10 км  гроза без осадков{ливн. осадки}  10/10 600 м кучево-дожд. 
[Cb cap]
+25.3 +22.7 86 +50  1011.4  1.2  756  273  +24.8         
09 15.08.17 330 (СЗ) 10 км  в посл. час ливневой дождь  10/10 600 м кучево-дожд. 
[Cb cap]
+26 +22.9 83 +52  1011.9  0.5  756  272           
12 15.08.17 140 (ЮВ) 4000 м  слаб. ливневой дождь, в посл. час гроза  10/10 300 м кучево-дожд. 
[Cb cap]
+22.5 +20.7 90 +42  1013.1  1.2  757  277           
15 15.08.17 060 (СВ) 10 км  {гроза, ливн. осадки}  8/8 600 м 
[Sc]
+25.4 +19.8 71 +43  1011.3  -1.9  756  274    +26.3     
18 15.08.17 050 (СВ) 10 км  {гроза, ливн. осадки}  3/3 600 м 
[Sc]
+23.2 +20.1 83 +42  1011.7  0.4  756  276           
21 15.08.17 050 (СВ) 10 км    ясно 
+21.8 +18.7 83 +37  1011  -0.7  755  278           
00 16.08.17 040 (СВ) 10 км    ясно 
+21.4 +18.2 82 +36  1010.3  -0.7  755  278           
03 16.08.17 060 (СВ) 10 км    3/0 верхняя 
[Ci fib]
+20.7 +16.2 75 +31  1010.7  0.4  755  279  +20.6        влажная 
06 16.08.17 050 (СВ) 10 км    3/0 верхняя 
[Ci fib]
+23.9 +16.6 64 +35  1010.8  0.2  755  276           
09 16.08.17 070 (В) 20000 м    4/0 верхняя 
[Ci fib]
+28.7 +17.3 50 +41  1011  0.2  755  272           
12 16.08.17 070 (В) 3{12}  20000 м    4/0 верхняя 
[Ci fib]
+32.6 +12.1 29 +37  1010.4  -0.6  755  270           
15 16.08.17 050 (СВ) 5{12}  10 км    3/0 верхняя 
[Ci fib]
+32 +10.9 27 +34  1009.5  -0.9  754  270    +32.8       
18 16.08.17 040 (СВ) 10 км    ясно 
+26.8 +13 42 +32  1010.1  0.5  755  274           
21 16.08.17 040 (СВ) 10 км    ясно 
+25.7 +9.6 36 +26  1009.3  -0.8  754  276           
00 17.08.17 030 (СВ) 10 км    ясно 
+22.5 +10.8 48 +25  1009  -0.3  754  279           
06 17.08.17 060 (СВ) 5{11}  20000 м    8/0 средняя, верхняя 
[Ac cast|Ci sp]
+26.5 +14.2 47 +34  1009.3  0.1  754  274           
09 17.08.17 060 (СВ) 7-13{14}  20000 м    8/0 средняя, верхняя 
[Ac cast|Ci sp]
+28 +15.6 47 +38  1009.6  0.3  754  272           
12 17.08.17 060 (СВ) 5-11{13}  20000 м    9/1 600 м кучево-дожд., средняя, верхняя 
[Cb cap|Ac cast|Ci sp]
+30.5 +17.2 45 +43  1009.3  -0.2  754  270           
15 17.08.17 070 (В) 3{11}  20000 м    8/0 средняя, верхняя 
[Ac cast|Ci sp]
+30.8 +17.8 46 +45  1008.8  -0.5  754  269    +31.1       
18 17.08.17 360 (С) 10 км    8/3 600 м кучево-дожд., средняя, верхняя 
[Cb cap|Ac trans|Ci sp]
+27.5 +18.6 58 +43  1009.5  0.6  754  272           
21 17.08.17 040 (СВ) 10 км    3/0 верхняя 
[Ci fib]
+25.2 +18.5 66 +40  1008.8  -0.7  754  274           
00 18.08.17 040 (СВ) 10 км    8/0 верхняя 
[Ci sp]
+24 +15.8 60 +34  1008.6  -0.2  754  276           
03 18.08.17 070 (В) 4{10}  10 км    9/3 600 м кучево-дожд., средняя, верхняя 
[Cb cap|Ac cast|Ci sp]
+23.4 +16.3 64 +34  1009.7  1.1  754  276  +23.4        сухая 
06 18.08.17 070 (В) 4{11}  20000 м    8/3 600 м средняя, верхняя 
[Sc|Ac As|Ci sp]
+26.9 +17.9 58 +41  1010.5  0.9  755  273  +23.1         
Время (UTC), дата Ветер
(°,м/с) 
Видим.   Явления Облачность Т
(°С)
Тd
(°С)
f(%) Тe
(°С)
Pmin
(гПа)
dP
(гПа)
Po
(мм)
O2
(г/м3)
Тmin Tmax R s Состояние
почвы

Для получения пояснительной информации подведите курсор к названию столбца.

ПОГОДА в Анапе - архив

Всё, что Вы хотите узнать о погоде в Анапе - удобно и подробно!

Выберите нужную дату (начиная с 1 января 2015* года) и нажмите кнопку "Найти".
Будут отображены архивные сводки погоды по пункту Анапа, начиная с указанной даты.


Отображать данные в формате CSV (для использования в таблицах Excel)


Внимание! Наш архив погоды предназначен исключительно для личного некоммерческого использования в познавательных целях. Если Вам необходимы официальные справки о состоянии погоды (для производственных, юридических, коммерческих и т.п. целей), обращайтесь в органы Росгидромета.

*Примечание: данная дата относится к архиву по метеостанциям СССР (Россия, СНГ, Балтия).
Архив по метеостанциям Зарубежной Европы и Азии (кроме Китая) хранится 10 дней, по другим регионам земного шара (Китай, Африка, Америка, Австралия, Океания) - 1 день.

Анапа - район местоположения метеостанции


Название, широта, долгота, высота метеостанции:
Анапа (обсерватория) 44.97°ш. 37.30°д. 23 м над ур. моря [Российская Федерация]

Дополнительная информация

В oтличие oт бoльшинства пoгoдных сайтoв мы публикуем пoдрoбную метеoинфoрмацию в детальнoм прoфессиoнальнoм фoрмате.

Характеристики температуры и влажнoсти вoздуха измеряются на высoте 2 м в тени вдали oт зданий и деревьев.
Скoрoсть ветра измеряется на высoте 10 м (на урoвне рoста челoвека скoрoсть ветра ниже в 1.5-2 раза). Если метеoстанция нахoдится в гoрoде или в лесу, тo скoрoсть ветра занижена на 2-4 м/с пo сравнению с oткрытым местoм. Скoрoсть ветра над акватoриями крупных рек и oзёр, а также на вершинах хoлмoв на 2-5 м/с выше, чем в oбычных услoвиях.
Атмoсфернoе давление в разных тoчках местнoсти мoжет значительнo oтличаться oт давления на метеoстанции, в зависимoсти oт услoвий рельефа (при пoдъёме на 10 м давление пoнижается примернo на 1 мм рт.ст.).